Historique des mesures à Cassis (13260), France
Quotidien Résumé Janvier 15, 2018 Unités:  Métrique/US    US   Métrique
« Précédent (Jour)
Suivant (Jour) »
Quotidien Hebdomadaire Mensuel Annuel Période au choix
  Maximum: Minimum: Moyenne:
Température: 32 °F /  TemperatureC °C 49.3 °F /  9.6 °C 51.6 °F /  10.9 °C
Point de rosée: 32 °F /  DewpointC °C 41 °F /  5.0 °C 43.2 °F /  6.2 °C
Humidité: Humidity % 67 % 68 %
Vitesse du vent: WindSpeedKMH mph /  0 km/h - 0.4 mph /  0.6 km/h
Rafales: WindSpeedGustKMH mph /  0 km/h - -
Vent:- - SE
Pression: 0 in /  PressurehPa hPa 30 in /  1016.5 hPa -
Précipitations: 0.0 in /  0 mm    
Historical Graphs
 
 
Mesures pour : Janvier 15, 2018
Heure Temperature Point de rosée Pression Vent Vitesse du vent Rafales Humidité Pluie (par heure)
32 °F /  TemperatureC °C 32 °F /  DewpointC °C 0 in /  PressurehPa hPa Calm     Humidity % HourlyPrecipMM in /  0 mm
01:12 50.7 °F /  10.4 °C 41.7 °F /  5.4 °C 30 in /  1017.2 hPa Calm     71 % 0.0 in /  0 mm
02:12 50.7 °F /  10.4 °C 42.1 °F /  5.6 °C 30.1 in /  1017.5 hPa Calm   2.6 mph /  4.2 km/h 72 % 0.0 in /  0 mm
03:12 51.1 °F /  10.6 °C 42.1 °F /  5.6 °C 30 in /  1017.2 hPa Calm     71 % 0.0 in /  0 mm
04:12 50.5 °F /  10.3 °C 41.5 °F /  5.3 °C 30 in /  1016.8 hPa Calm     71 % 0.0 in /  0 mm
05:12 49.3 °F /  9.6 °C 41 °F /  5.0 °C 30 in /  1017.2 hPa NW 2.6 mph /  4.2 km/h 2.6 mph /  4.2 km/h 73 % 0.0 in /  0 mm
06:12 49.6 °F /  9.8 °C 41.4 °F /  5.2 °C 30 in /  1017.2 hPa Calm   5.0 mph /  8 km/h 73 % 0.0 in /  0 mm
08:12 50.5 °F /  10.3 °C 41.9 °F /  5.5 °C 30.1 in /  1017.8 hPa Calm     72 % 0.0 in /  0 mm
09:12 50.5 °F /  10.3 °C 41.9 °F /  5.5 °C 30.1 in /  1018.5 hPa North 2.1 mph /  3.4 km/h 2.1 mph /  3.4 km/h 72 % 0.0 in /  0 mm
10:12 51.3 °F /  10.7 °C 42.6 °F /  5.9 °C 30.1 in /  1018.8 hPa Calm     72 % 0.0 in /  0 mm
11:12 52.9 °F /  11.6 °C 43.9 °F /  6.6 °C 30.1 in /  1019.5 hPa Calm     71 % 0.0 in /  0 mm
12:12 54.7 °F /  12.6 °C 44.8 °F /  7.1 °C 30.1 in /  1019.2 hPa Calm   2.1 mph /  3.4 km/h 69 % 0.0 in /  0 mm
13:12 55.6 °F /  13.1 °C 45.1 °F /  7.3 °C 30.1 in /  1018.2 hPa Calm   1.8 mph /  2.9 km/h 68 % 0.0 in /  0 mm
14:12 56.5 °F /  13.6 °C 46.4 °F /  8.0 °C 30 in /  1017.2 hPa Calm   5.0 mph /  8 km/h 69 % 0.0 in /  0 mm
15:12 57.4 °F /  14.1 °C 46.6 °F /  8.1 °C 30.1 in /  1017.8 hPa East 1.4 mph /  2.3 km/h 4.7 mph /  7.6 km/h 67 % 0.0 in /  0 mm
16:12 56.5 °F /  13.6 °C 46.4 °F /  8.0 °C 30.1 in /  1017.5 hPa SSE 2.1 mph /  3.4 km/h 2.1 mph /  3.4 km/h 69 % 0.0 in /  0 mm
17:12 55 °F /  12.8 °C 45.9 °F /  7.7 °C 30 in /  1017.2 hPa Calm     71 % 0.0 in /  0 mm
19:12 53.4 °F /  11.9 °C 45.7 °F /  7.6 °C 30 in /  1016.8 hPa Calm     75 % 0.0 in /  0 mm
21:12 52.5 °F /  11.4 °C 45.1 °F /  7.3 °C 30 in /  1017.2 hPa Calm   6.4 mph /  10.3 km/h 76 % 0.0 in /  0 mm
22:12 52.3 °F /  11.3 °C 45 °F /  7.2 °C 30 in /  1016.8 hPa Calm     76 % 0.0 in /  0 mm
23:12 51.8 °F /  11.0 °C 44.4 °F /  6.9 °C 30 in /  1016.5 hPa Calm     76 % 0.0 in /  0 mm
Observations météo à CASSIS
WU-History script by Weather Underground - 1 mb